Theta_e
322 323 323 324 324 324 324 324 325 326 326 326 327 327 328 329 330 331 331 332 336 339 340 340 341 339 338 336 333 332 333 333 335 336 339 340 340 341 342 342 342 344 348 351
324 323 324 325 324 323 322 322 323 324 324 325 325 326 327 328 328 329 330 330 332 335 340 341 341 341 340 339 337 334 334 335 335 335 337 338 338 339 339 341 343 344 346 351
325 325 323 323 323 321 322 323 324 324 325 325 325 325 325 327 328 329 330 331 331 331 336 341 341 342 341 341 343 338 336 336 338 334 335 337 337 338 339 340 341 345 347 351
325 325 323 322 322 323 323 325 324 325 326 325 328 326 328 327 327 329 330 330 330 331 334 339 342 341 342 341 341 344 341 339 338 338 334 335 337 337 339 340 341 345 348 351
326 324 323 322 323 323 325 325 325 325 326 327 327 327 327 328 328 328 328 329 332 333 334 336 339 341 340 341 341 341 345 346 342 341 336 335 337 336 337 340 343 346 349 351
327 326 324 324 324 324 325 325 325 326 326 327 328 327 328 328 329 329 330 330 332 332 332 333 334 335 337 339 339 340 343 348 349 346 343 336 336 337 338 340 343 347 350 351
328 326 326 325 325 326 325 326 328 329 330 329 329 327 328 328 330 330 330 333 336 337 339 340 341 340 341 342 343 342 342 346 350 351 348 345 340 340 339 342 345 347 351 352
329 329 327 326 326 326 327 327 328 333 332 330 331 330 330 331 331 330 335 338 339 339 340 340 341 340 340 341 341 343 343 341 343 351 351 350 349 344 343 342 343 346 350 351
329 328 327 326 326 326 328 329 329 330 331 331 329 330 330 332 333 336 338 338 338 337 336 336 336 337 338 339 340 340 342 344 341 338 348 350 350 351 347 344 345 342 348 351
330 330 327 327 327 327 327 328 331 331 334 335 332 331 336 336 338 338 338 337 337 335 334 334 333 332 332 333 334 337 338 339 343 342 338 342 347 348 350 348 348 348 343 351
329 331 327 328 327 327 329 330 329 330 331 331 331 330 340 343 342 340 336 335 334 333 332 331 331 330 329 329 330 331 332 334 337 341 345 341 339 341 344 347 349 348 349 351
333 334 333 329 327 327 327 328 328 330 330 331 332 332 338 337 336 336 336 333 332 331 331 330 329 328 327 327 327 327 327 328 329 332 336 344 346 343 342 344 347 348 348 350
334 332 335 332 331 330 330 331 332 333 335 334 332 330 337 335 336 335 335 334 332 330 329 328 327 327 325 325 324 324 324 324 326 327 329 334 344 348 346 346 346 349 349 350
331 333 334 332 330 332 332 331 330 331 333 333 332 331 330 335 336 334 332 331 330 330 329 328 327 326 324 323 323 322 322 321 322 323 327 329 333 339 346 345 347 348 349 348
331 335 333 332 330 329 328 326 324 325 326 328 327 326 324 330 331 330 329 329 328 328 329 327 326 324 321 321 321 321 320 321 320 320 322 327 329 333 341 345 344 346 348 349
330 331 325 324 324 323 321 320 320 320 320 320 320 323 333 331 330 329 328 326 324 324 325 327 323 319 318 318 319 319 319 320 320 320 320 322 326 330 332 338 345 343 344 346
327 327 325 326 324 321 321 323 323 322 324 328 329 328 325 323 323 326 325 321 320 321 324 323 320 317 317 317 316 317 318 319 320 320 319 320 323 326 328 331 336 344 343 344
326 326 325 324 323 324 323 326 323 323 322 323 323 323 321 320 319 319 319 320 319 319 318 318 316 316 317 317 317 317 317 318 319 319 319 319 321 324 327 329 333 335 341 343
323 325 324 325 324 323 322 325 324 323 322 321 323 320 319 319 318 318 317 318 318 318 317 317 316 316 316 316 317 317 318 318 318 319 319 319 320 323 326 328 331 334 336 340
321 323 325 324 324 325 328 322 319 319 319 321 319 319 318 318 318 316 318 318 318 317 317 318 318 318 318 318 319 318 317 318 318 318 319 319 320 322 325 328 329 331 334 336
323 324 324 323 322 321 322 318 318 319 322 318 317 317 317 318 319 319 318 319 318 318 318 318 318 319 319 318 318 318 319 319 318 318 318 319 320 321 324 325 327 329 329 330
322 325 324 323 323 324 319 319 320 320 317 317 317 318 319 319 319 319 319 319 319 319 318 318 318 318 318 317 317 317 317 317 318 319 319 319 320 322 322 325 326 327 327 329
319 322 325 323 323 324 318 316 315 316 317 317 317 318 318 319 319 319 319 318 318 317 317 317 318 318 317 317 316 318 317 317 317 317 319 320 319 321 322 323 325 326 324 325
319 317 317 316 316 315 315 315 315 316 316 316 317 318 317 318 316 316 317 317 316 316 317 318 318 319 318 317 316 316 317 317 317 317 318 319 319 320 322 323 325 324 322 322
317 317 317 315 315 316 316 316 316 316 317 317 317 316 317 317 316 316 316 317 316 316 318 317 318 318 318 318 317 317 317 317 317 317 318 318 318 320 322 323 323 323 320 319
314 315 316 317 317 317 316 316 316 316 318 316 315 316 315 315 315 314 314 314 315 316 316 317 318 318 318 319 319 318 317 318 317 317 317 318 318 320 322 323 322 322 320 319
Wind_Speed
14 11 13 16 15 16 13 14 13 13 7 6 13 17 19 12 9 9 15 14 14 14 15 23 25 28 30 30 31 30 29 29 26 29 28 26 27 26 25 25 23 22 20 20
8 12 14 4 5 7 11 13 14 15 16 16 15 18 20 14 17 10 14 10 10 14 15 19 27 28 30 31 33 33 35 33 33 29 28 28 27 28 28 27 26 24 23 22
14 2 4 4 9 10 12 13 11 12 14 9 15 19 20 18 18 14 9 11 14 14 13 18 20 28 29 31 31 32 32 30 31 33 28 26 25 27 27 27 26 26 27 24
11 12 7 8 11 10 13 16 9 7 10 13 13 12 14 21 17 12 12 13 14 16 8 7 17 24 29 30 30 32 31 34 33 34 33 33 30 28 29 26 28 26 27 26
3 6 9 12 12 10 7 5 5 8 12 13 15 8 11 7 5 8 13 4 14 14 12 5 9 19 24 27 29 30 32 34 35 38 42 35 36 32 31 31 27 29 29 28
15 4 5 8 9 5 12 6 12 13 13 13 15 13 11 3 8 5 9 12 8 8 7 6 7 7 7 18 25 29 31 36 37 36 36 39 37 36 29 32 32 28 30 35
17 14 12 8 12 10 11 9 9 10 12 13 5 5 9 12 8 8 9 9 7 6 8 8 10 11 11 13 15 17 19 32 37 38 40 41 41 36 41 34 34 31 33 34
6 15 12 4 12 11 18 12 11 13 10 10 10 6 8 8 10 10 10 9 7 8 9 9 10 11 9 11 13 13 13 16 17 35 39 39 38 39 39 42 39 39 36 41
4 6 10 4 2 6 5 10 10 12 14 12 15 15 15 18 13 12 9 7 7 8 8 10 12 14 14 13 12 14 15 13 15 22 25 34 34 36 37 40 38 46 39 40
3 10 5 8 5 12 10 10 8 10 14 15 13 13 8 14 12 10 8 7 8 8 10 11 11 13 14 14 15 15 15 16 15 12 15 22 28 31 33 38 37 38 46 38
2 4 11 8 9 10 5 11 8 9 9 13 12 7 11 10 9 7 7 8 9 10 10 11 12 15 15 16 17 17 18 18 17 20 18 14 19 24 29 33 34 37 36 37
5 4 9 14 16 11 10 15 15 11 13 12 13 11 11 8 9 4 6 7 9 9 10 12 14 15 16 17 18 19 19 19 20 21 21 23 16 18 22 26 30 31 36 39
2 5 7 14 16 10 9 5 5 5 6 13 13 13 10 7 6 6 7 7 8 10 11 11 13 15 17 19 20 21 21 22 22 23 23 22 25 16 17 21 26 29 33 36
2 6 10 12 17 14 10 11 12 13 10 14 14 19 17 3 7 6 8 10 10 11 11 12 13 16 20 21 21 22 23 24 24 25 24 23 24 28 19 22 21 26 30 33
3 10 12 14 16 15 17 18 18 18 18 18 18 19 18 13 9 6 7 12 13 14 11 12 14 16 24 26 27 27 26 25 25 25 26 24 23 27 27 18 23 24 28 30
4 8 9 15 16 18 20 17 18 19 18 21 20 14 11 10 11 11 13 15 16 17 18 11 16 24 27 28 28 28 29 30 28 26 26 27 26 23 25 25 22 27 29 31
7 7 8 14 15 13 12 16 13 9 8 7 8 11 12 12 15 15 14 17 19 15 18 19 20 26 28 30 31 30 31 31 29 29 27 26 27 26 25 25 24 24 30 31
10 10 9 12 11 17 8 4 4 6 8 3 6 7 11 13 14 17 18 15 15 18 19 21 25 28 29 29 31 31 30 30 30 30 30 27 25 26 27 27 25 24 24 29
12 12 11 11 12 13 14 8 4 6 8 4 6 10 12 15 17 17 13 21 20 20 24 27 30 32 33 33 33 34 32 31 31 31 30 29 25 25 28 26 27 25 24 26
8 10 11 12 11 12 6 7 5 4 9 11 10 13 17 19 15 15 23 23 22 28 29 30 33 35 35 35 34 34 35 33 31 31 31 28 27 24 27 27 27 27 24 25
9 9 12 11 12 13 10 5 6 9 5 12 13 15 17 16 15 21 23 23 29 31 33 34 33 33 32 33 34 35 36 35 34 33 30 30 28 27 25 26 26 25 23 27
8 10 10 12 13 14 8 3 6 9 10 13 15 16 18 20 22 22 22 23 24 27 34 33 35 31 32 33 32 32 30 34 38 36 31 29 29 29 28 26 25 23 24 25
6 4 6 5 5 3 4 4 6 8 11 12 16 18 17 19 20 21 22 23 25 32 30 34 32 33 32 30 29 31 32 31 32 34 36 27 28 31 32 28 24 21 21 21
6 3 5 7 3 1 5 8 2 8 12 15 14 17 18 18 18 19 16 15 20 25 30 31 31 28 30 31 32 34 34 33 31 33 33 30 27 30 30 26 21 17 19 19
6 2 4 9 10 4 2 6 11 15 15 14 17 16 18 18 19 17 19 17 19 27 26 29 29 28 33 34 32 34 32 32 31 30 30 28 28 28 26 24 21 18 22 20
8 7 7 3 7 6 10 13 15 11 13 11 14 16 16 18 17 20 17 20 23 25 29 28 29 29 31 34 29 29 31 33 32 28 26 28 27 23 26 24 23 20 23 23
Wind_Direction
209 225 223 240 224 266 324 304 309 304 265 277 273 283 274 265 260 219 248 235 202 212 210 194 200 198 195 197 196 197 205 205 206 201 205 211 212 216 218 220 219 216 212 212
182 235 261 263 328 270 263 264 262 266 272 268 266 265 262 252 265 239 262 265 259 191 204 204 197 207 202 198 198 200 201 204 206 208 212 216 218 218 218 217 217 216 215 215
249 34 26 278 219 247 241 263 262 270 297 252 263 261 263 260 256 258 273 269 269 281 212 194 202 201 211 209 201 205 207 208 207 209 214 221 228 231 225 222 217 208 212 216
242 255 203 230 237 227 259 218 239 271 262 264 216 268 252 220 229 206 240 243 243 236 187 266 198 205 209 220 214 211 208 211 211 209 215 215 218 224 225 222 223 212 208 211
184 220 226 237 247 222 281 11 268 274 274 274 263 238 274 98 199 254 243 257 26 7 10 343 214 210 217 221 227 216 212 212 215 212 212 215 218 222 223 221 225 208 203 205
272 146 263 248 219 200 275 264 248 244 253 253 238 258 260 274 169 182 79 61 36 30 51 38 15 347 262 229 226 222 215 213 212 217 222 222 221 219 220 221 218 211 204 196
211 223 204 229 244 206 233 250 255 233 230 234 158 245 285 326 40 29 41 76 67 40 58 50 44 32 21 358 341 326 225 216 213 214 218 222 227 224 219 226 218 210 206 199
238 179 177 159 238 238 210 238 260 300 296 305 134 244 269 89 82 88 80 73 45 32 37 34 53 31 35 21 10 353 329 302 263 220 224 226 227 227 229 226 226 218 214 205
298 182 120 228 266 267 271 235 269 288 275 268 274 276 246 140 118 109 101 85 52 32 33 29 32 23 12 22 30 14 352 323 304 282 255 230 232 232 234 235 232 233 226 214
23 289 209 127 250 239 257 306 273 228 252 261 258 275 35 127 117 111 97 71 52 18 20 19 19 25 12 11 13 10 358 353 341 316 290 265 241 241 242 240 241 236 232 220
329 249 264 171 233 287 194 231 226 256 299 300 296 295 74 73 69 88 78 44 28 10 13 3 4 10 7 7 8 4 356 353 356 349 331 287 266 259 249 247 243 244 238 231
77 298 268 280 311 307 290 286 288 279 274 272 284 283 105 116 113 69 47 32 9 8 5 350 358 359 360 358 357 353 352 353 352 349 338 330 284 264 254 254 249 243 242 234
74 239 266 251 240 184 250 200 284 294 282 265 279 281 121 149 125 57 15 5 346 350 357 343 352 351 350 348 348 344 344 345 345 342 339 336 328 298 258 258 255 247 240 241
337 270 265 279 300 322 287 244 253 282 266 278 273 290 299 134 54 358 349 337 332 334 341 343 341 340 339 335 335 333 336 337 338 335 334 332 328 324 289 276 270 253 245 240
307 265 275 279 287 286 286 282 278 271 269 268 281 290 294 357 13 357 344 339 334 330 322 334 337 335 329 326 326 324 327 326 329 328 326 323 323 321 330 278 267 266 254 244
160 275 279 275 274 269 265 270 269 264 266 265 267 279 29 358 341 347 345 336 331 318 309 319 336 327 321 319 318 318 317 319 319 320 318 317 317 316 322 326 284 266 260 252
250 279 277 273 283 289 275 269 273 270 300 343 290 6 8 347 344 341 322 318 306 319 341 337 323 314 312 313 311 311 313 312 309 309 309 310 310 312 312 312 307 280 253 251
257 244 269 270 281 266 255 74 357 314 321 299 308 349 346 333 325 316 309 314 350 331 320 313 307 307 308 309 307 306 304 304 303 302 304 306 304 306 311 307 298 297 282 252
223 251 262 264 253 264 268 67 9 3 309 344 2 339 330 327 317 294 330 350 332 323 314 309 308 307 306 303 303 303 300 298 297 296 299 301 304 304 305 304 303 301 297 283
228 227 252 254 246 265 89 68 22 326 265 34 348 329 330 327 312 317 338 321 314 311 309 310 309 307 303 302 304 297 294 293 295 296 296 298 299 296 296 299 299 298 298 297
206 222 229 240 256 262 60 14 311 261 355 339 330 324 323 318 314 312 309 310 319 321 319 316 314 311 306 307 308 306 305 295 289 292 295 296 298 295 286 288 296 300 306 298
226 224 235 231 248 255 28 206 325 356 326 330 328 326 321 320 316 317 319 315 315 316 315 317 313 310 308 309 306 298 297 301 304 297 290 293 299 296 292 287 291 296 303 299
257 326 329 323 27 135 91 1 330 330 316 325 329 323 320 308 309 310 314 313 311 308 310 305 308 310 306 304 302 298 295 298 297 296 295 288 292 295 297 292 291 294 303 306
172 190 270 316 163 353 339 311 314 322 325 333 331 316 311 312 314 308 302 299 303 304 302 309 307 307 305 304 299 294 299 296 291 285 289 290 295 293 290 285 283 283 294 302
343 150 262 282 275 332 192 16 339 344 341 321 311 319 300 306 321 321 318 316 307 303 308 313 311 311 309 304 296 294 298 300 295 287 289 285 284 282 289 285 286 271 280 292
241 242 261 311 13 326 320 340 343 322 303 311 295 307 319 337 326 326 314 316 310 311 314 319 324 323 318 315 305 302 305 300 294 292 292 282 287 296 289 283 286 289 283 286